Погода в Пушкине

Россия / Брянская область     52°09′36″N   34°20′20″E
темп.,
°C
ветер,
м/с
пор.,
м/с
влажн.,
%
обл.,
%
осадки,
мм/ч
давл.,
гПа
погр.,
м
12 мая, ср
ср1200:00+7в411850 0.0 1023294
03:00+5в412930 0.0 1023403
06:00+5всв411915 0.0 1023287
09:00+11в610697 0.0 1022893
12:00+14в6759100 0.1 10201689
15:00+13всв6766100 0.8 10191181
18:00+12всв4676100 0.8 1016885
21:00+8всв36906 0.8 101697
13 мая, чт
чт1300:00+8в39945 0.0 1014405
03:00+7вюв41096100 0.1 1013348
06:00+8вюв5109367 2.5 1013471
09:00+9юв698599 2.6 1013705
12:00+13ю796695 0.3 10131542
15:00+13ююз686462 0.4 10131510
18:00+13ю4671100 0.1 1013977
21:00+9юв3382100 0.1 101424
14 мая, пт
пт1400:00+8вюв3686100 0.0 101495
03:00+10вюв3780100 0.0 1013142
06:00+10вюв399098 0.0 1012194
09:00+15вюв611825 0.2 1011529
12:00+20ююв797091 0.8 10101296
15:00+21ю6969100 3.0 10091236
18:00+19ю487999 1.4 1009479
21:00+15ю339375 2.5 100940
15 мая, сб
сб1500:00+13ю22925 1.1 100913
03:00+13ююв22907 1.1 100816
06:00+12ююв369549 0.3 1009128
09:00+17ююз588239 1.0 1008514
12:00+19ююз69635 0.4 10091338
15:00+19юз68665 1.6 10101472
18:00+17юз58775 1.0 1010782
21:00+13ююз3692100 1.3 101195
16 мая, вс
вс1600:00+11юз34924 0.0 101267
03:00+10ююз229241 0.0 101313
06:00+11ююз12910 0.0 101321
09:00+16ююз23731 0.0 1013448
12:00+20ююз235947 0.0 10131253
15:00+21юз225378 0.0 10131559
18:00+21всв116495 0.0 1012290
21:00+16св337940 0.0 101225